Time,TemperatureF,DewpointF,PressureIn,WindDirection,WindDirectionDegrees,WindSpeedMPH,WindSpeedGustMPH,Humidity,HourlyPrecipIn,Conditions,Clouds,dailyrainin,SolarRadiationWatts/m^2,SoftwareType,DateUTC
2013-05-25 00:02:00,79.0,65.0,-100.00,North,11,14.0,26.0,62,0.00,,,0.00,1.000000,,2013-05-25 10:02:00,
2013-05-25 00:12:00,79.0,65.0,-100.00,North,11,14.0,26.0,62,0.00,,,0.00,1.000000,,2013-05-25 10:12:00,
2013-05-25 00:22:00,79.0,65.0,-100.00,North,11,14.0,26.0,62,0.00,,,0.00,1.000000,,2013-05-25 10:22:00,
2013-05-25 00:32:00,79.0,65.0,-100.00,North,11,14.0,26.0,62,0.00,,,0.00,1.000000,,2013-05-25 10:32:00,
2013-05-25 00:52:00,76.0,64.0,-100.00,NNE,13,13.0,22.0,66,0.00,,,0.00,0.000000,,2013-05-25 10:52:00,
2013-05-25 01:02:00,76.0,64.0,-100.00,NNE,13,13.0,22.0,66,0.00,,,0.00,0.000000,,2013-05-25 11:02:00,
2013-05-25 01:12:00,76.0,64.0,-100.00,NNE,13,13.0,22.0,66,0.00,,,0.00,0.000000,,2013-05-25 11:12:00,
2013-05-25 01:21:00,76.0,64.0,-100.00,NNE,13,13.0,22.0,66,0.00,,,0.00,0.000000,,2013-05-25 11:21:00,
2013-05-25 01:32:00,76.0,64.0,-100.00,NNE,13,13.0,22.0,66,0.00,,,0.00,0.000000,,2013-05-25 11:32:00,
2013-05-25 02:01:00,77.0,64.0,-100.00,NNE,14,12.0,22.0,64,0.00,,,0.00,1.000000,,2013-05-25 12:01:00,
2013-05-25 02:12:00,77.0,64.0,-100.00,NNE,14,12.0,22.0,64,0.00,,,0.00,1.000000,,2013-05-25 12:12:00,
2013-05-25 02:21:00,77.0,64.0,-100.00,NNE,14,12.0,22.0,64,0.00,,,0.00,1.000000,,2013-05-25 12:21:00,
2013-05-25 02:32:00,77.0,64.0,-100.00,NNE,14,12.0,22.0,64,0.00,,,0.00,1.000000,,2013-05-25 12:32:00,
2013-05-25 02:52:00,76.0,63.0,-100.00,NNE,13,7.0,18.0,64,0.00,,,0.00,1.000000,,2013-05-25 12:52:00,
2013-05-25 03:02:00,76.0,63.0,-100.00,NNE,13,7.0,18.0,64,0.00,,,0.00,1.000000,,2013-05-25 13:02:00,
2013-05-25 03:11:00,76.0,63.0,-100.00,NNE,13,7.0,18.0,64,0.00,,,0.00,1.000000,,2013-05-25 13:11:00,
2013-05-25 03:21:00,76.0,63.0,-100.00,NNE,13,7.0,18.0,64,0.00,,,0.00,1.000000,,2013-05-25 13:21:00,
2013-05-25 03:32:00,76.0,63.0,-100.00,NNE,13,7.0,18.0,64,0.00,,,0.00,1.000000,,2013-05-25 13:32:00,
2013-05-25 03:52:00,76.0,63.0,-100.00,North,10,8.0,17.0,65,0.00,,,0.00,1.000000,,2013-05-25 13:52:00,
2013-05-25 04:02:00,76.0,63.0,-100.00,North,10,8.0,17.0,65,0.00,,,0.00,1.000000,,2013-05-25 14:02:00,
2013-05-25 04:11:00,76.0,63.0,-100.00,North,10,8.0,17.0,65,0.00,,,0.00,1.000000,,2013-05-25 14:11:00,
2013-05-25 04:22:00,76.0,63.0,-100.00,North,10,8.0,17.0,65,0.00,,,0.00,1.000000,,2013-05-25 14:22:00,
2013-05-25 04:32:00,76.0,63.0,-100.00,North,10,8.0,17.0,65,0.00,,,0.00,1.000000,,2013-05-25 14:32:00,
2013-05-25 05:01:00,76.0,63.0,-100.00,North,10,8.0,17.0,65,0.00,,,0.00,0.000000,,2013-05-25 15:01:00,
2013-05-25 05:11:00,76.0,63.0,-100.00,North,10,8.0,17.0,65,0.00,,,0.00,0.000000,,2013-05-25 15:11:00,
2013-05-25 05:22:00,76.0,63.0,-100.00,North,10,8.0,17.0,65,0.00,,,0.00,0.000000,,2013-05-25 15:22:00,
2013-05-25 05:33:00,76.0,63.0,-100.00,North,10,8.0,17.0,65,0.00,,,0.00,0.000000,,2013-05-25 15:33:00,
2013-05-25 06:03:00,75.0,63.0,-100.00,North,11,7.0,15.0,67,0.00,,,0.00,1.000000,,2013-05-25 16:03:00,
2013-05-25 06:12:00,75.0,63.0,-100.00,North,11,7.0,15.0,67,0.00,,,0.00,1.000000,,2013-05-25 16:12:00,
2013-05-25 06:23:00,75.0,63.0,-100.00,North,11,7.0,15.0,67,0.00,,,0.00,1.000000,,2013-05-25 16:23:00,
2013-05-25 06:32:00,75.0,63.0,-100.00,North,11,7.0,15.0,67,0.00,,,0.00,1.000000,,2013-05-25 16:32:00,
2013-05-25 06:52:00,77.0,64.0,-100.00,North,9,11.0,20.0,65,0.00,,,0.00,17.000000,,2013-05-25 16:52:00,
2013-05-25 07:02:00,77.0,64.0,-100.00,North,9,11.0,20.0,65,0.00,,,0.00,17.000000,,2013-05-25 17:02:00,
2013-05-25 07:11:00,77.0,64.0,-100.00,North,9,11.0,20.0,65,0.00,,,0.00,17.000000,,2013-05-25 17:11:00,
2013-05-25 07:22:00,77.0,64.0,-100.00,North,9,11.0,20.0,65,0.00,,,0.00,17.000000,,2013-05-25 17:22:00,
2013-05-25 07:32:00,77.0,64.0,-100.00,North,9,11.0,20.0,65,0.00,,,0.00,17.000000,,2013-05-25 17:32:00,
2013-05-25 07:52:00,79.0,67.0,-100.00,NNE,14,7.0,19.0,67,0.00,,,0.00,104.000000,,2013-05-25 17:52:00,
2013-05-25 08:01:00,79.0,67.0,-100.00,NNE,14,7.0,19.0,67,0.00,,,0.00,104.000000,,2013-05-25 18:01:00,
2013-05-25 08:11:00,79.0,67.0,-100.00,NNE,14,7.0,19.0,67,0.00,,,0.00,104.000000,,2013-05-25 18:11:00,
2013-05-25 08:21:00,79.0,67.0,-100.00,NNE,14,7.0,19.0,67,0.00,,,0.00,104.000000,,2013-05-25 18:21:00,
2013-05-25 08:31:00,79.0,67.0,-100.00,NNE,14,7.0,19.0,67,0.00,,,0.00,104.000000,,2013-05-25 18:31:00,
2013-05-25 08:52:00,85.0,68.0,-100.00,NNE,27,8.0,15.0,56,0.00,,,0.00,343.000000,,2013-05-25 18:52:00,
2013-05-25 09:01:00,85.0,68.0,-100.00,NNE,27,8.0,15.0,56,0.00,,,0.00,343.000000,,2013-05-25 19:01:00,
2013-05-25 09:11:00,85.0,68.0,-100.00,NNE,27,8.0,15.0,56,0.00,,,0.00,343.000000,,2013-05-25 19:11:00,
2013-05-25 09:21:00,85.0,68.0,-100.00,NNE,27,8.0,15.0,56,0.00,,,0.00,343.000000,,2013-05-25 19:21:00,
2013-05-25 09:31:00,85.0,68.0,-100.00,NNE,27,8.0,15.0,56,0.00,,,0.00,343.000000,,2013-05-25 19:31:00,
2013-05-25 09:52:00,88.0,67.0,-100.00,North,11,6.0,17.0,50,0.00,,,0.00,513.000000,,2013-05-25 19:52:00,
2013-05-25 10:02:00,88.0,67.0,-100.00,North,11,6.0,17.0,50,0.00,,,0.00,513.000000,,2013-05-25 20:02:00,
2013-05-25 10:11:00,88.0,67.0,-100.00,North,11,6.0,17.0,50,0.00,,,0.00,513.000000,,2013-05-25 20:11:00,
2013-05-25 10:21:00,88.0,67.0,-100.00,North,11,6.0,17.0,50,0.00,,,0.00,513.000000,,2013-05-25 20:21:00,
2013-05-25 10:32:00,88.0,67.0,-100.00,North,11,6.0,17.0,50,0.00,,,0.00,513.000000,,2013-05-25 20:32:00,
2013-05-25 10:52:00,90.0,66.0,-100.00,NNE,24,6.0,19.0,45,0.00,,,0.00,665.000000,,2013-05-25 20:52:00,
2013-05-25 11:02:00,90.0,66.0,-100.00,NNE,24,6.0,19.0,45,0.00,,,0.00,665.000000,,2013-05-25 21:02:00,
2013-05-25 11:11:00,90.0,66.0,-100.00,NNE,24,6.0,19.0,45,0.00,,,0.00,665.000000,,2013-05-25 21:11:00,
2013-05-25 11:21:00,90.0,66.0,-100.00,NNE,24,6.0,19.0,45,0.00,,,0.00,665.000000,,2013-05-25 21:21:00,
2013-05-25 11:32:00,90.0,66.0,-100.00,NNE,24,6.0,19.0,45,0.00,,,0.00,665.000000,,2013-05-25 21:32:00,
2013-05-25 11:53:00,88.0,65.0,-100.00,North,11,8.0,17.0,47,0.00,,,0.00,618.000000,,2013-05-25 21:53:00,
2013-05-25 12:03:00,88.0,65.0,-100.00,North,11,8.0,17.0,47,0.00,,,0.00,618.000000,,2013-05-25 22:03:00,
2013-05-25 12:12:00,88.0,65.0,-100.00,North,11,8.0,17.0,47,0.00,,,0.00,618.000000,,2013-05-25 22:12:00,
2013-05-25 12:22:00,88.0,65.0,-100.00,North,11,8.0,17.0,47,0.00,,,0.00,618.000000,,2013-05-25 22:22:00,
2013-05-25 12:32:00,88.0,65.0,-100.00,North,11,8.0,17.0,47,0.00,,,0.00,618.000000,,2013-05-25 22:32:00,
2013-05-25 12:52:00,87.0,65.0,-100.00,NNE,14,8.0,24.0,49,0.00,,,0.00,469.000000,,2013-05-25 22:52:00,
2013-05-25 13:02:00,87.0,65.0,-100.00,NNE,14,8.0,24.0,49,0.00,,,0.00,469.000000,,2013-05-25 23:02:00,
2013-05-25 13:12:00,87.0,65.0,-100.00,NNE,14,8.0,24.0,49,0.00,,,0.00,469.000000,,2013-05-25 23:12:00,
2013-05-25 13:21:00,87.0,65.0,-100.00,NNE,14,8.0,24.0,49,0.00,,,0.00,469.000000,,2013-05-25 23:21:00,
2013-05-25 13:32:00,87.0,65.0,-100.00,NNE,14,8.0,24.0,49,0.00,,,0.00,469.000000,,2013-05-25 23:32:00,
2013-05-25 13:52:00,90.0,68.0,-100.00,North,9,7.0,18.0,48,0.00,,,0.00,728.000000,,2013-05-25 23:52:00,
2013-05-25 14:01:00,90.0,68.0,-100.00,North,9,7.0,18.0,48,0.00,,,0.00,728.000000,,2013-05-26 00:01:00,
2013-05-25 14:11:00,90.0,68.0,-100.00,North,9,7.0,18.0,48,0.00,,,0.00,728.000000,,2013-05-26 00:11:00,
2013-05-25 14:21:00,90.0,68.0,-100.00,North,9,7.0,18.0,48,0.00,,,0.00,728.000000,,2013-05-26 00:21:00,
2013-05-25 14:31:00,90.0,68.0,-100.00,North,9,7.0,18.0,48,0.00,,,0.00,728.000000,,2013-05-26 00:31:00,
2013-05-25 15:01:00,87.0,65.0,-100.00,NNE,17,9.0,22.0,49,0.00,,,0.00,656.000000,,2013-05-26 01:01:00,
2013-05-25 15:11:00,87.0,65.0,-100.00,NNE,17,9.0,22.0,49,0.00,,,0.00,656.000000,,2013-05-26 01:11:00,
2013-05-25 15:21:00,87.0,65.0,-100.00,NNE,17,9.0,22.0,49,0.00,,,0.00,656.000000,,2013-05-26 01:21:00,
2013-05-25 15:32:00,87.0,65.0,-100.00,NNE,17,9.0,22.0,49,0.00,,,0.00,656.000000,,2013-05-26 01:32:00,
2013-05-25 15:52:00,87.0,66.0,-100.00,NNE,23,7.0,27.0,50,0.00,,,0.00,460.000000,,2013-05-26 01:52:00,
2013-05-25 16:02:00,87.0,66.0,-100.00,NNE,23,7.0,27.0,50,0.00,,,0.00,460.000000,,2013-05-26 02:02:00,
2013-05-25 16:11:00,87.0,66.0,-100.00,NNE,23,7.0,27.0,50,0.00,,,0.00,460.000000,,2013-05-26 02:11:00,
2013-05-25 16:21:00,87.0,66.0,-100.00,NNE,23,7.0,27.0,50,0.00,,,0.00,460.000000,,2013-05-26 02:21:00,
2013-05-25 16:32:00,87.0,66.0,-100.00,NNE,23,7.0,27.0,50,0.00,,,0.00,460.000000,,2013-05-26 02:32:00,
2013-05-25 16:52:00,80.0,64.0,-100.00,NNE,22,10.0,21.0,59,0.00,,,0.00,240.000000,,2013-05-26 02:52:00,
2013-05-25 17:01:00,80.0,64.0,-100.00,NNE,22,10.0,21.0,59,0.00,,,0.00,240.000000,,2013-05-26 03:01:00,
2013-05-25 17:11:00,80.0,64.0,-100.00,NNE,22,10.0,21.0,59,0.00,,,0.00,240.000000,,2013-05-26 03:11:00,
2013-05-25 17:21:00,80.0,64.0,-100.00,NNE,22,10.0,21.0,59,0.00,,,0.00,240.000000,,2013-05-26 03:21:00,
2013-05-25 17:33:00,80.0,64.0,-100.00,NNE,22,10.0,21.0,59,0.00,,,0.00,240.000000,,2013-05-26 03:33:00,
2013-05-25 17:53:00,81.0,69.0,-100.00,NNE,13,7.0,20.0,67,0.00,,,0.00,206.000000,,2013-05-26 03:53:00,
2013-05-25 18:02:00,81.0,69.0,-100.00,NNE,13,7.0,20.0,67,0.00,,,0.00,206.000000,,2013-05-26 04:02:00,
2013-05-25 18:12:00,81.0,69.0,-100.00,NNE,13,7.0,20.0,67,0.00,,,0.00,206.000000,,2013-05-26 04:12:00,
2013-05-25 18:23:00,81.0,69.0,-100.00,NNE,13,7.0,20.0,67,0.00,,,0.00,206.000000,,2013-05-26 04:23:00,
2013-05-25 18:33:00,81.0,69.0,-100.00,NNE,13,7.0,20.0,67,0.00,,,0.00,206.000000,,2013-05-26 04:33:00,
2013-05-25 19:02:00,79.0,68.0,-100.00,NNE,15,8.0,19.0,68,0.00,,,0.00,78.000000,,2013-05-26 05:02:00,
2013-05-25 19:12:00,79.0,68.0,-100.00,NNE,15,8.0,19.0,68,0.00,,,0.00,78.000000,,2013-05-26 05:12:00,
2013-05-25 19:22:00,79.0,68.0,-100.00,NNE,15,8.0,19.0,68,0.00,,,0.00,78.000000,,2013-05-26 05:22:00,
2013-05-25 19:32:00,79.0,68.0,-100.00,NNE,15,8.0,19.0,68,0.00,,,0.00,78.000000,,2013-05-26 05:32:00,
2013-05-25 19:52:00,78.0,69.0,-100.00,NNE,12,8.0,17.0,73,0.00,,,0.00,10.000000,,2013-05-26 05:52:00,
2013-05-25 20:01:00,78.0,69.0,-100.00,NNE,12,8.0,17.0,73,0.00,,,0.00,10.000000,,2013-05-26 06:01:00,
2013-05-25 20:11:00,78.0,69.0,-100.00,NNE,12,8.0,17.0,73,0.00,,,0.00,10.000000,,2013-05-26 06:11:00,
2013-05-25 20:21:00,78.0,69.0,-100.00,NNE,12,8.0,17.0,73,0.00,,,0.00,10.000000,,2013-05-26 06:21:00,
2013-05-25 20:32:00,78.0,69.0,-100.00,NNE,12,8.0,17.0,73,0.00,,,0.00,10.000000,,2013-05-26 06:32:00,
2013-05-25 21:01:00,77.0,65.0,-100.00,North,11,9.0,18.0,67,0.00,,,-99.99,1.000000,,2013-05-26 07:01:00,
2013-05-25 21:11:00,77.0,65.0,-100.00,North,11,9.0,18.0,67,0.00,,,-99.99,1.000000,,2013-05-26 07:11:00,
2013-05-25 21:21:00,77.0,65.0,-100.00,North,11,9.0,18.0,67,0.00,,,-99.99,1.000000,,2013-05-26 07:21:00,
2013-05-25 21:31:00,77.0,65.0,-100.00,North,11,9.0,18.0,67,0.00,,,-99.99,1.000000,,2013-05-26 07:31:00,
2013-05-25 22:01:00,77.0,66.0,-100.00,NNE,14,15.0,24.0,69,0.00,,,0.00,0.000000,,2013-05-26 08:01:00,
2013-05-25 22:11:00,77.0,66.0,-100.00,NNE,14,15.0,24.0,69,0.00,,,0.00,0.000000,,2013-05-26 08:11:00,
2013-05-25 22:21:00,77.0,66.0,-100.00,NNE,14,15.0,24.0,69,0.00,,,0.00,0.000000,,2013-05-26 08:21:00,
2013-05-25 22:31:00,77.0,66.0,-100.00,NNE,14,15.0,24.0,69,0.00,,,0.00,0.000000,,2013-05-26 08:31:00,
2013-05-25 22:53:00,76.0,66.0,-100.00,NNE,13,15.0,26.0,71,0.00,,,0.00,0.000000,,2013-05-26 08:53:00,
2013-05-25 23:01:00,76.0,66.0,-100.00,NNE,13,15.0,26.0,71,0.00,,,0.00,0.000000,,2013-05-26 09:01:00,
2013-05-25 23:11:00,76.0,66.0,-100.00,NNE,13,15.0,26.0,71,0.00,,,0.00,0.000000,,2013-05-26 09:11:00,
2013-05-25 23:21:00,76.0,66.0,-100.00,NNE,13,15.0,26.0,71,0.00,,,0.00,0.000000,,2013-05-26 09:21:00,
2013-05-25 23:33:00,76.0,66.0,-100.00,NNE,13,15.0,26.0,71,0.00,,,0.00,0.000000,,2013-05-26 09:33:00,
2013-05-25 23:53:00,77.0,67.0,-100.00,NNE,12,13.0,25.0,72,0.00,,,0.00,1.000000,,2013-05-26 09:53:00,